Weather History for Chester, CT

Change the Weather History Date:

Wednesday, October 3, 2012

  Actual Average (KHVN) Record (KHVN)
Temperature  
Mean Temperature 66 °F -  
Max Temperature 71 °F 65 °F 78 °F (1983)
Min Temperature 60 °F 48 °F 36 °F (1974)
Growing Degree Days 16 (Base 50)    
Moisture  
Dew Point 65 °F    
Average Humidity 98    
Maximum Humidity 100    
Minimum Humidity 88    
Precipitation  
Precipitation 0.00 in - - ()
Sea Level Pressure  
Sea Level Pressure 30.08 in    
Wind  
Wind Speed 3 mph (North)    
Max Wind Speed 6 mph    
Max Gust Speed -    
Visibility 3 miles    
Events Fog , Rain    
Averages and records for this station are not official NWS values.
T = Trace of Precipitation, MM = Missing Value Source: NWS Daily Summary

Daily Weather History Graph

Daily Weather History Graph

Search for Another Location

Airport:

Trip Planner

Search our weather history database for the weather conditions in past years. The results will help you decide how hot, cold, wet, or windy it might be!

Date:

Astronomy

Oct. 03, 2012 Rise Set
Actual Time 6:49 AM EDT 6:27 PM EDT
Civil Twilight 6:21 AM EDT 6:55 PM EDT
Nautical Twilight 5:49 AM EDT 7:27 PM EDT
Astronomical Twilight 5:17 AM EDT 7:59 PM EDT
Moon 8:15 PM EDT (10/3) 10:12 AM EDT (10/3)
Length of Visible Light 12h 33m
Length of Day
11h 38m
Waning Gibbous, 89% of the Moon is Illuminated
Oct 3
Waning Gibbous
Oct 8
Last Quarter
Oct 15
New
Oct 21
First Quarter
Oct 29
Full

Hourly Weather History & Observations

Time (EDT) Temp. Dew Point Humidity Pressure Visibility Wind Dir Wind Speed Gust Speed Precip Events Conditions
12:35 AM 60.8 °F 60.8 °F 100% 30.02 in 0.2 mi North 3.5 mph - N/A Fog Fog
12:55 AM 60.8 °F 60.8 °F 100% 30.02 in 0.2 mi North 3.5 mph - N/A Fog Fog
1:15 AM 60.8 °F 60.8 °F 100% 30.02 in 0.2 mi North 3.5 mph - N/A Fog Fog
1:35 AM 60.8 °F 60.8 °F 100% 30.02 in 0.5 mi North 3.5 mph - N/A Fog Fog
1:55 AM 60.8 °F 60.8 °F 100% 30.02 in 0.2 mi North 5.8 mph - N/A Fog Fog
2:15 AM 60.8 °F 60.8 °F 100% 30.02 in 0.2 mi North 4.6 mph - N/A Fog Fog
2:35 AM 60.8 °F 60.8 °F 100% 30.02 in 0.2 mi NNE 3.5 mph - N/A Fog Fog
2:55 AM 60.8 °F 60.8 °F 100% 30.01 in 0.2 mi North 3.5 mph - N/A Fog Fog
3:15 AM 60.8 °F 60.8 °F 100% 30.02 in 0.2 mi North 3.5 mph - N/A Fog Fog
3:35 AM 60.8 °F 60.8 °F 100% 30.02 in 0.2 mi North 3.5 mph - N/A Fog Fog
3:55 AM 60.8 °F 60.8 °F 100% 30.02 in 0.2 mi North 4.6 mph - N/A Fog Fog
4:35 AM 60.8 °F 60.8 °F 100% 30.03 in 0.2 mi NNE 4.6 mph - N/A Fog Fog
4:55 AM 60.8 °F 60.8 °F 100% 30.04 in 0.2 mi North 5.8 mph - N/A Fog Fog
5:35 AM 60.8 °F 60.8 °F 100% 30.04 in 0.2 mi North 3.5 mph - N/A Fog Fog
5:55 AM 60.8 °F 60.8 °F 100% 30.05 in 0.2 mi North 4.6 mph - N/A Fog Fog
6:15 AM 60.8 °F 60.8 °F 100% 30.05 in 0.2 mi North 4.6 mph - N/A Fog Fog
6:35 AM 60.8 °F 60.8 °F 100% 30.05 in 0.2 mi North 5.8 mph - N/A Fog Fog
7:15 AM 60.8 °F 60.8 °F 100% 30.07 in 0.2 mi Calm Calm - N/A Fog Fog
7:35 AM 60.8 °F 60.8 °F 100% 30.07 in 0.2 mi North 4.6 mph - N/A Fog Fog
8:15 AM 62.6 °F 62.6 °F 100% 30.09 in 0.2 mi NNW 5.8 mph - N/A Fog Fog
8:35 AM 62.6 °F 62.6 °F 100% 30.09 in 0.2 mi North 4.6 mph - N/A Fog Fog
8:55 AM 62.6 °F 62.6 °F 100% 30.09 in 0.2 mi North 3.5 mph - N/A Fog Fog
9:15 AM 62.6 °F 62.6 °F 100% 30.09 in 0.5 mi North 3.5 mph - N/A Fog Fog
9:35 AM 64.4 °F 64.4 °F 100% 30.09 in 0.8 mi North 3.5 mph - N/A   Overcast
9:55 AM 64.4 °F 64.4 °F 100% 30.09 in 0.8 mi NW 5.8 mph - N/A   Overcast
10:35 AM 64.4 °F 64.4 °F 100% 30.10 in 7.0 mi NW 3.5 mph - N/A   Overcast
10:55 AM 66.2 °F 66.2 °F 100% 30.10 in 9.0 mi Calm Calm - N/A   Overcast
11:15 AM 66.2 °F 66.2 °F 100% 30.10 in 10.0 mi Calm Calm - N/A   Overcast
11:35 AM 66.2 °F 66.2 °F 100% 30.09 in 9.0 mi NNW 3.5 mph - N/A   Overcast
11:55 AM 66.2 °F 66.2 °F 100% 30.09 in 8.0 mi North 3.5 mph - N/A   Overcast
12:15 PM 66.2 °F 66.2 °F 100% 30.09 in 8.0 mi South 3.5 mph - N/A   Overcast
12:35 PM 66.2 °F 66.2 °F 100% 30.09 in 7.0 mi Calm Calm - N/A   Overcast
12:55 PM 68.0 °F 66.2 °F 94% 30.08 in 9.0 mi Calm Calm - N/A   Overcast
1:15 PM 69.8 °F 66.2 °F 88% 30.07 in 10.0 mi Calm Calm - N/A   Overcast
1:35 PM 69.8 °F 66.2 °F 88% 30.07 in 10.0 mi NE 3.5 mph - N/A   Overcast
1:55 PM 69.8 °F 66.2 °F 88% 30.07 in 10.0 mi East 3.5 mph - N/A   Overcast
2:15 PM 71.6 °F 68.0 °F 88% 30.08 in 10.0 mi Calm Calm - N/A   Overcast
2:35 PM 69.8 °F 68.0 °F 94% 30.07 in 9.0 mi Calm Calm - N/A   Overcast
2:55 PM 69.8 °F 68.0 °F 94% 30.08 in 10.0 mi Calm Calm - N/A   Overcast
3:15 PM 69.8 °F 68.0 °F 94% 30.07 in 10.0 mi Calm Calm - N/A   Overcast
3:35 PM 69.8 °F 68.0 °F 94% 30.08 in 10.0 mi Calm Calm - N/A   Overcast
3:55 PM 69.8 °F 68.0 °F 94% 30.08 in 10.0 mi Calm Calm - N/A   Overcast
4:15 PM 69.8 °F 68.0 °F 94% 30.08 in 10.0 mi South 3.5 mph - N/A   Overcast
4:35 PM 69.8 °F 68.0 °F 94% 30.09 in 9.0 mi SSW 4.6 mph - N/A   Overcast
4:55 PM 69.8 °F 68.0 °F 94% 30.09 in 6.0 mi South 3.5 mph - N/A   Overcast
5:15 PM 68.0 °F 68.0 °F 100% 30.10 in 4.0 mi Calm Calm - N/A Rain Light Rain
5:35 PM 68.0 °F 68.0 °F 100% 30.10 in 2.5 mi Calm Calm - N/A   Light Drizzle
5:55 PM 68.0 °F 66.2 °F 94% 30.10 in 2.0 mi South 3.5 mph - N/A   Overcast
6:15 PM 66.2 °F 66.2 °F 100% 30.11 in 1.0 mi SW 3.5 mph - N/A   Overcast
6:35 PM 66.2 °F 66.2 °F 100% 30.10 in 0.8 mi North - - N/A Rain Light Rain
6:55 PM 66.2 °F 66.2 °F 100% 30.11 in 1.8 mi SSW 3.5 mph - N/A   Overcast
7:15 PM 66.2 °F 66.2 °F 100% 30.11 in 1.0 mi Calm Calm - N/A   Overcast
7:35 PM 66.2 °F 66.2 °F 100% 30.12 in 0.2 mi Calm Calm - N/A Fog Fog
7:55 PM 66.2 °F 66.2 °F 100% 30.12 in 0.2 mi Calm Calm - N/A Fog Fog
8:15 PM 66.2 °F 66.2 °F 100% 30.13 in 0.2 mi Calm Calm - N/A Fog Fog
8:35 PM 66.2 °F 66.2 °F 100% 30.13 in 0.2 mi Calm Calm - N/A Fog Fog
8:55 PM 66.2 °F 66.2 °F 100% 30.13 in 0.2 mi South 3.5 mph - N/A Fog Fog
9:15 PM 66.2 °F 66.2 °F 100% 30.13 in 0.2 mi Calm Calm - N/A Fog Fog
9:35 PM 66.2 °F 66.2 °F 100% 30.13 in 0.2 mi Calm Calm - N/A Fog Fog
9:55 PM 66.2 °F 66.2 °F 100% 30.14 in 0.2 mi Calm Calm - N/A Fog Fog
10:15 PM 66.2 °F 66.2 °F 100% 30.13 in 0.2 mi Calm Calm - N/A Fog Fog
10:35 PM 66.2 °F 66.2 °F 100% 30.14 in 0.2 mi Calm Calm - N/A Fog Fog
10:55 PM 66.2 °F 66.2 °F 100% 30.14 in 0.2 mi Calm Calm - N/A Fog Fog
11:15 PM 66.2 °F 66.2 °F 100% 30.14 in 0.2 mi Calm Calm - N/A Fog Fog
11:35 PM 66.2 °F 66.2 °F 100% 30.14 in 0.2 mi Calm Calm - N/A Fog Fog
11:55 PM 66.2 °F 66.2 °F 100% 30.14 in 0.2 mi Calm Calm - N/A Fog Fog